| time (UTC) | temp F | wind direction | speed MPH | gust MPH | rain 1hr in | rain 24hr in | rain mn in | humidity % | barometer mb |
| 20260831231205 | 85 | 121 | 0.0 | 3.0 | 0.00 | 0.00 | 0.00 | 32 | 1019.5 |
| 20260831230706 | 84 | 5 | 1.0 | 3.0 | 0.00 | 0.00 | 0.00 | 33 | 1019.5 |
| 20260831225705 | 83 | 111 | 1.0 | 3.0 | 0.00 | 0.00 | 0.00 | 31 | 1019.6 |
| 20260831225205 | 83 | 122 | 0.0 | 1.0 | 0.00 | 0.00 | 0.00 | 35 | 1019.7 |
| 20260831224705 | 83 | 122 | 0.0 | 0.0 | 0.00 | 0.00 | 0.00 | 33 | 1019.8 |
| 20260831223706 | 83 | 122 | 0.0 | 0.0 | 0.00 | 0.00 | 0.00 | 33 | 1019.8 |
| 20260831223206 | 83 | 122 | 1.0 | 2.0 | 0.00 | 0.00 | 0.00 | 32 | 1019.9 |
| 20260831222206 | 83 | 15 | 0.0 | 1.0 | 0.00 | 0.00 | 0.00 | 35 | 1019.9 |
| 20260831221705 | 83 | 15 | 0.0 | 1.0 | 0.00 | 0.00 | 0.00 | 35 | 1019.9 |
| 20260831221206 | 83 | 15 | 0.0 | 2.0 | 0.00 | 0.00 | 0.00 | 35 | 1020.0 |
| 20260831220205 | 83 | 15 | 0.0 | 1.0 | 0.00 | 0.01 | 0.00 | 33 | 1020.1 |
| 20260831215705 | 82 | 15 | 0.0 | 2.0 | 0.00 | 0.01 | 0.00 | 33 | 1020.1 |
| 20260831215205 | 82 | 15 | 1.0 | 3.0 | 0.00 | 0.01 | 0.00 | 35 | 1020.1 |
| 20260831214705 | 82 | 23 | 2.0 | 3.0 | 0.00 | 0.01 | 0.00 | 33 | 1019.9 |
| 20260831214205 | 82 | 66 | 1.0 | 3.0 | 0.00 | 0.01 | 0.00 | 34 | 1020.1 |
| 20260831212705 | 82 | 100 | 0.0 | 3.0 | 0.00 | 0.01 | 0.00 | 35 | 1020.4 |
| 20260831212206 | 81 | 120 | 0.0 | 1.0 | 0.00 | 0.01 | 0.00 | 35 | 1020.4 |
| 20260831211705 | 81 | 120 | 1.0 | 3.0 | 0.00 | 0.01 | 0.00 | 35 | 1020.5 |
| 20260831210705 | 81 | 84 | 1.0 | 3.0 | 0.00 | 0.01 | 0.00 | 36 | 1020.7 |
| 20260831210206 | 81 | 59 | 1.0 | 3.0 | 0.00 | 0.01 | 0.00 | 34 | 1020.7 |
| 20260831205705 | 81 | 59 | 0.0 | 1.0 | 0.00 | 0.01 | 0.00 | 38 | 1020.7 |
| 20260831205205 | 81 | 59 | 1.0 | 3.0 | 0.00 | 0.01 | 0.00 | 34 | 1020.7 |
| 20260831204705 | 81 | 80 | 0.0 | 2.0 | 0.00 | 0.02 | 0.00 | 35 | 1020.8 |
| 20260831204206 | 81 | 80 | 0.0 | 1.0 | 0.00 | 0.02 | 0.00 | 38 | 1020.8 |
| 20260831203705 | 81 | 80 | 0.0 | 3.0 | 0.00 | 0.02 | 0.00 | 35 | 1020.8 |
| 20260831203205 | 81 | 66 | 1.0 | 5.0 | 0.00 | 0.02 | 0.00 | 36 | 1020.9 |
| 20260831202705 | 80 | 55 | 1.0 | 3.0 | 0.00 | 0.02 | 0.00 | 34 | 1021.1 |
| 20260831201705 | 80 | 55 | 0.0 | 2.0 | 0.00 | 0.02 | 0.00 | 41 | 1021.3 |
| 20260831201205 | 80 | 55 | 0.0 | 2.0 | 0.00 | 0.02 | 0.00 | 37 | 1021.3 |
| 20260831200705 | 80 | 55 | 0.0 | 1.0 | 0.00 | 0.02 | 0.00 | 40 | 1021.4 |
| 20260831200205 | 79 | 55 | 1.0 | 3.0 | 0.00 | 0.02 | 0.00 | 37 | 1021.4 |
| 20260831195705 | 79 | 61 | 2.0 | 3.0 | 0.00 | 0.02 | 0.00 | 35 | 1021.4 |
| 20260831195206 | 79 | 49 | 1.0 | 3.0 | 0.00 | 0.02 | 0.00 | 35 | 1021.4 |
| 20260831194705 | 79 | 47 | 2.0 | 3.0 | 0.00 | 0.02 | 0.00 | 35 | 1021.5 |
| 20260831194205 | 79 | 45 | 0.0 | 3.0 | 0.00 | 0.02 | 0.00 | 37 | 1021.6 |
| 20260831193705 | 79 | 45 | 1.0 | 3.0 | 0.00 | 0.02 | 0.00 | 36 | 1021.6 |
| 20260831193205 | 79 | 45 | 0.0 | 3.0 | 0.00 | 0.02 | 0.00 | 36 | 1021.7 |
| 20260831192706 | 79 | 45 | 2.0 | 3.0 | 0.00 | 0.02 | 0.00 | 36 | 1021.7 |
| 20260831192205 | 79 | 69 | 0.0 | 3.0 | 0.00 | 0.02 | 0.00 | 36 | 1021.8 |
| 20260831191705 | 79 | 69 | 1.0 | 2.0 | 0.00 | 0.02 | 0.00 | 36 | 1021.8 |
| 20260831191205 | 78 | 69 | 0.0 | 2.0 | 0.00 | 0.02 | 0.00 | 37 | 1022.0 |
| 20260831190705 | 78 | 69 | 0.0 | 3.0 | 0.00 | 0.02 | 0.00 | 39 | 1022.0 |
| 20260831190205 | 78 | 69 | 0.0 | 3.0 | 0.00 | 0.02 | 0.00 | 37 | 1022.1 |
| 20260831185705 | 78 | 69 | 0.0 | 0.0 | 0.00 | 0.02 | 0.00 | 43 | 1022.1 |
| 20260831185205 | 78 | 69 | 0.0 | 1.0 | 0.00 | 0.02 | 0.00 | 39 | 1022.1 |
| 20260831184705 | 78 | 69 | 0.0 | 1.0 | 0.00 | 0.02 | 0.00 | 40 | 1022.2 |
| 20260831183705 | 78 | 34 | 0.0 | 3.0 | 0.00 | 0.02 | 0.00 | 37 | 1022.2 |
| 20260831183205 | 78 | 33 | 1.0 | 3.0 | 0.00 | 0.02 | 0.00 | 37 | 1022.3 |
| 20260831182705 | 78 | 33 | 0.0 | 2.0 | 0.00 | 0.02 | 0.00 | 37 | 1022.3 |
| 20260831182205 | 78 | 33 | 1.0 | 3.0 | 0.00 | 0.02 | 0.00 | 37 | 1022.3 |
| 20260831181705 | 78 | 63 | 1.0 | 3.0 | 0.00 | 0.02 | 0.00 | 39 | 1022.3 |
| 20260831180705 | 77 | 63 | 0.0 | 0.0 | 0.00 | 0.02 | 0.00 | 44 | 1022.4 |
| 20260831180205 | 77 | 63 | 0.0 | 2.0 | 0.00 | 0.02 | 0.00 | 42 | 1022.4 |
| 20260831174705 | 77 | 63 | 0.0 | 1.0 | 0.00 | 0.02 | 0.00 | 41 | 1022.5 |
| 20260831174205 | 76 | 63 | 0.0 | 0.0 | 0.00 | 0.02 | 0.00 | 44 | 1022.5 |
| 20260831173705 | 76 | 63 | 0.0 | 0.0 | 0.00 | 0.02 | 0.00 | 44 | 1022.5 |
| 20260831172704 | 76 | 63 | 0.0 | 0.0 | 0.00 | 0.02 | 0.00 | 45 | 1022.5 |
| 20260831172205 | 76 | 63 | 0.0 | 0.0 | 0.00 | 0.02 | 0.00 | 44 | 1022.6 |
| 20260831171705 | 76 | 63 | 0.0 | 0.0 | 0.00 | 0.02 | 0.00 | 42 | 1022.5 |
| 20260831171205 | 76 | 63 | 0.0 | 0.0 | 0.00 | 0.02 | 0.00 | 46 | 1022.6 |
| 20260831170705 | 76 | 63 | 0.0 | 0.0 | 0.00 | 0.02 | 0.00 | 45 | 1022.6 |
| 20260831170205 | 76 | 63 | 0.0 | 0.0 | 0.00 | 0.02 | 0.00 | 45 | 1022.6 |
| 20260831165205 | 75 | 63 | 0.0 | 0.0 | 0.00 | 0.02 | 0.00 | 44 | 1022.7 |
| 20260831164705 | 75 | 63 | 0.0 | 0.0 | 0.00 | 0.02 | 0.00 | 48 | 1022.6 |
| 20260831164204 | 75 | 63 | 0.0 | 0.0 | 0.00 | 0.02 | 0.00 | 47 | 1022.6 |
| 20260831163705 | 74 | 63 | 0.0 | 0.0 | 0.00 | 0.02 | 0.00 | 48 | 1022.6 |
| 20260831163205 | 74 | 63 | 0.0 | 0.0 | 0.00 | 0.02 | 0.00 | 49 | 1022.6 |
| 20260831162705 | 74 | 63 | 0.0 | 0.0 | 0.00 | 0.02 | 0.00 | 53 | 1022.5 |
| 20260831162205 | 73 | 63 | 0.0 | 0.0 | 0.00 | 0.02 | 0.00 | 51 | 1022.5 |
| 20260831161704 | 73 | 63 | 0.0 | 0.0 | 0.00 | 0.02 | 0.00 | 53 | 1022.4 |
| 20260831161205 | 72 | 63 | 0.0 | 0.0 | 0.00 | 0.02 | 0.00 | 55 | 1022.4 |
| 20260831160705 | 72 | 63 | 0.0 | 0.0 | 0.00 | 0.02 | 0.00 | 56 | 1022.3 |
| 20260831160205 | 71 | 63 | 0.0 | 0.0 | 0.00 | 0.02 | 0.00 | 54 | 1022.3 |
| 20260831155705 | 71 | 61 | 0.0 | 0.0 | 0.00 | 0.02 | 0.00 | 56 | 1022.3 |
| 20260831155205 | 71 | 61 | 0.0 | 0.0 | 0.00 | 0.02 | 0.00 | 55 | 1022.3 |
| 20260831154705 | 70 | 61 | 0.0 | 0.0 | 0.00 | 0.02 | 0.00 | 54 | 1022.3 |
| 20260831154205 | 70 | 61 | 0.0 | 0.0 | 0.00 | 0.02 | 0.00 | 57 | 1022.3 |
| 20260831153705 | 69 | 61 | 0.0 | 0.0 | 0.00 | 0.02 | 0.00 | 61 | 1022.3 |
| 20260831153205 | 69 | 61 | 0.0 | 0.0 | 0.00 | 0.02 | 0.00 | 62 | 1022.3 |
| 20260831152705 | 69 | 61 | 0.0 | 0.0 | 0.00 | 0.02 | 0.00 | 62 | 1022.3 |
| 20260831152205 | 68 | 61 | 0.0 | 0.0 | 0.00 | 0.02 | 0.00 | 62 | 1022.2 |
| 20260831151705 | 68 | 61 | 0.0 | 0.0 | 0.00 | 0.02 | 0.00 | 64 | 1022.2 |
| 20260831150205 | 67 | 61 | 0.0 | 0.0 | 0.00 | 0.02 | 0.00 | 64 | 1022.3 |
| 20260831145705 | 67 | 61 | 0.0 | 0.0 | 0.00 | 0.02 | 0.00 | 65 | 1022.3 |
| 20260831145204 | 66 | 61 | 0.0 | 0.0 | 0.00 | 0.02 | 0.00 | 66 | 1022.3 |
| 20260831144705 | 66 | 61 | 0.0 | 0.0 | 0.00 | 0.02 | 0.00 | 67 | 1022.3 |
| 20260831144204 | 65 | 61 | 0.0 | 0.0 | 0.00 | 0.02 | 0.00 | 67 | 1022.4 |
| 20260831143705 | 65 | 61 | 0.0 | 0.0 | 0.00 | 0.02 | 0.00 | 67 | 1022.4 |
| 20260831143204 | 64 | 61 | 0.0 | 0.0 | 0.00 | 0.02 | 0.00 | 68 | 1022.3 |
| 20260831142705 | 64 | 61 | 0.0 | 0.0 | 0.00 | 0.02 | 0.00 | 71 | 1022.3 |
| 20260831142205 | 64 | 61 | 0.0 | 0.0 | 0.00 | 0.02 | 0.00 | 71 | 1022.3 |
| 20260831141704 | 63 | 61 | 0.0 | 0.0 | 0.00 | 0.02 | 0.00 | 72 | 1022.2 |
| 20260831141205 | 63 | 61 | 0.0 | 0.0 | 0.00 | 0.02 | 0.00 | 73 | 1022.2 |
| 20260831140705 | 62 | 61 | 0.0 | 0.0 | 0.00 | 0.02 | 0.00 | 73 | 1022.1 |
| 20260831140205 | 62 | 61 | 0.0 | 0.0 | 0.00 | 0.02 | 0.00 | 74 | 1021.9 |
| 20260831134204 | 60 | 61 | 0.0 | 0.0 | 0.00 | 0.02 | 0.00 | 79 | 1021.8 |
| 20260831133205 | 59 | 61 | 0.0 | 0.0 | 0.00 | 0.02 | 0.00 | 80 | 1021.7 |
| 20260831132705 | 59 | 61 | 0.0 | 0.0 | 0.00 | 0.02 | 0.00 | 80 | 1021.6 |
| 20260831132205 | 58 | 61 | 0.0 | 0.0 | 0.00 | 0.02 | 0.00 | 79 | 1021.5 |
| 20260831131705 | 58 | 61 | 0.0 | 0.0 | 0.00 | 0.02 | 0.00 | 80 | 1021.5 |
| 20260831131205 | 58 | 61 | 0.0 | 0.0 | 0.00 | 0.02 | 0.00 | 80 | 1021.4 |
| 20260831130704 | 57 | 61 | 0.0 | 0.0 | 0.00 | 0.02 | 0.00 | 80 | 1021.3 |
| 20260831125704 | 57 | 61 | 0.0 | 1.0 | 0.00 | 0.02 | 0.00 | 80 | 1021.2 |
| 20260831125205 | 57 | 61 | 0.0 | 1.0 | 0.00 | 0.02 | 0.00 | 80 | 1021.2 |
| 20260831124704 | 57 | 61 | 0.0 | 1.0 | 0.00 | 0.02 | 0.00 | 80 | 1021.2 |
| 20260831124205 | 57 | 61 | 0.0 | 0.0 | 0.00 | 0.02 | 0.00 | 80 | 1021.0 |
| 20260831123705 | 57 | 61 | 0.0 | 0.0 | 0.00 | 0.02 | 0.00 | 80 | 1021.0 |
| 20260831123204 | 57 | 61 | 0.0 | 0.0 | 0.00 | 0.02 | 0.00 | 80 | 1021.0 |
| 20260831122705 | 57 | 61 | 0.0 | 0.0 | 0.00 | 0.02 | 0.00 | 80 | 1020.9 |
| 20260831122205 | 57 | 61 | 0.0 | 0.0 | 0.00 | 0.02 | 0.00 | 80 | 1020.9 |
| 20260831121704 | 57 | 61 | 0.0 | 0.0 | 0.00 | 0.02 | 0.00 | 80 | 1020.9 |
| 20260831120205 | 57 | 61 | 0.0 | 0.0 | 0.00 | 0.02 | 0.00 | 81 | 1020.8 |
| 20260831115704 | 57 | 61 | 0.0 | 0.0 | 0.00 | 0.02 | 0.00 | 81 | 1020.8 |
| 20260831115205 | 57 | 61 | 0.0 | 0.0 | 0.00 | 0.02 | 0.00 | 81 | 1020.8 |
| 20260831114704 | 58 | 61 | 0.0 | 0.0 | 0.00 | 0.02 | 0.00 | 82 | 1020.8 |
| 20260831114205 | 58 | 61 | 0.0 | 0.0 | 0.00 | 0.02 | 0.00 | 82 | 1020.7 |
| 20260831112705 | 58 | 61 | 0.0 | 0.0 | 0.00 | 0.02 | 0.00 | 82 | 1020.6 |
| 20260831112205 | 58 | 61 | 0.0 | 0.0 | 0.00 | 0.02 | 0.00 | 82 | 1020.6 |
| 20260831111704 | 58 | 61 | 0.0 | 0.0 | 0.00 | 0.02 | 0.00 | 82 | 1020.6 |
| 20260831111205 | 58 | 61 | 0.0 | 0.0 | 0.00 | 0.02 | 0.00 | 82 | 1020.5 |
| 20260831110704 | 58 | 61 | 0.0 | 0.0 | 0.00 | 0.02 | 0.00 | 82 | 1020.5 |
| 20260831110205 | 58 | 61 | 0.0 | 0.0 | 0.00 | 0.02 | 0.00 | 82 | 1020.6 |
| 20260831105705 | 59 | 61 | 0.0 | 0.0 | 0.00 | 0.02 | 0.00 | 82 | 1020.6 |
| 20260831105204 | 59 | 61 | 0.0 | 0.0 | 0.00 | 0.02 | 0.00 | 82 | 1020.6 |
| 20260831104704 | 59 | 61 | 0.0 | 0.0 | 0.00 | 0.02 | 0.00 | 81 | 1020.5 |
| 20260831104205 | 59 | 61 | 0.0 | 0.0 | 0.00 | 0.02 | 0.00 | 81 | 1020.5 |
| 20260831103704 | 59 | 61 | 0.0 | 0.0 | 0.00 | 0.02 | 0.00 | 81 | 1020.5 |
| 20260831103205 | 59 | 61 | 0.0 | 0.0 | 0.00 | 0.02 | 0.00 | 81 | 1020.5 |
| 20260831102705 | 59 | 61 | 0.0 | 0.0 | 0.00 | 0.02 | 0.00 | 80 | 1020.5 |
| 20260831102205 | 60 | 61 | 0.0 | 0.0 | 0.00 | 0.02 | 0.00 | 80 | 1020.4 |
| 20260831101704 | 60 | 61 | 0.0 | 0.0 | 0.00 | 0.02 | 0.00 | 80 | 1020.4 |
| 20260831101205 | 60 | 61 | 0.0 | 0.0 | 0.00 | 0.02 | 0.00 | 80 | 1020.5 |
| 20260831100704 | 60 | 61 | 0.0 | 0.0 | 0.00 | 0.02 | 0.00 | 80 | 1020.5 |
| 20260831100205 | 60 | 61 | 0.0 | 0.0 | 0.00 | 0.02 | 0.00 | 80 | 1020.5 |
| 20260831095704 | 60 | 61 | 0.0 | 0.0 | 0.00 | 0.02 | 0.00 | 80 | 1020.4 |
| 20260831095204 | 60 | 61 | 0.0 | 0.0 | 0.00 | 0.02 | 0.00 | 80 | 1020.2 |
| 20260831094705 | 60 | 61 | 0.0 | 0.0 | 0.00 | 0.02 | 0.00 | 80 | 1020.3 |
| 20260831093704 | 61 | 61 | 0.0 | 0.0 | 0.00 | 0.02 | 0.00 | 79 | 1020.2 |
| 20260831092704 | 61 | 61 | 0.0 | 0.0 | 0.00 | 0.02 | 0.00 | 79 | 1020.3 |
| 20260831092205 | 61 | 61 | 0.0 | 0.0 | 0.00 | 0.02 | 0.00 | 79 | 1020.3 |
| 20260831090704 | 61 | 61 | 0.0 | 0.0 | 0.00 | 0.02 | 0.00 | 78 | 1020.2 |
| 20260831090204 | 62 | 61 | 0.0 | 0.0 | 0.00 | 0.02 | 0.00 | 78 | 1020.1 |
| 20260831085704 | 62 | 61 | 0.0 | 0.0 | 0.00 | 0.02 | 0.00 | 78 | 1020.1 |
| 20260831085205 | 62 | 61 | 0.0 | 1.0 | 0.00 | 0.02 | 0.00 | 78 | 1020.0 |
| 20260831084704 | 62 | 61 | 0.0 | 0.0 | 0.00 | 0.02 | 0.00 | 77 | 1020.1 |
| 20260831084204 | 62 | 61 | 0.0 | 0.0 | 0.00 | 0.02 | 0.00 | 76 | 1020.1 |
| 20260831083704 | 62 | 61 | 0.0 | 0.0 | 0.00 | 0.02 | 0.00 | 76 | 1020.1 |
| 20260831083204 | 62 | 61 | 0.0 | 0.0 | 0.00 | 0.02 | 0.00 | 75 | 1020.2 |
| 20260831082704 | 63 | 61 | 0.0 | 0.0 | 0.00 | 0.02 | 0.00 | 75 | 1020.1 |
| 20260831082205 | 63 | 61 | 0.0 | 0.0 | 0.00 | 0.02 | 0.00 | 75 | 1020.1 |
| 20260831081704 | 63 | 61 | 0.0 | 0.0 | 0.00 | 0.02 | 0.00 | 75 | 1020.1 |
| 20260831081204 | 63 | 61 | 0.0 | 0.0 | 0.00 | 0.02 | 0.00 | 74 | 1020.1 |
| 20260831080704 | 63 | 61 | 0.0 | 1.0 | 0.00 | 0.02 | 0.00 | 74 | 1020.1 |
| 20260831080204 | 63 | 61 | 0.0 | 0.0 | 0.00 | 0.02 | 0.00 | 74 | 1020.2 |
| 20260831074204 | 64 | 61 | 0.0 | 0.0 | 0.00 | 0.02 | 0.00 | 72 | 1020.5 |
| 20260831073704 | 64 | 61 | 0.0 | 0.0 | 0.00 | 0.02 | 0.00 | 72 | 1020.6 |
| 20260831073204 | 64 | 61 | 0.0 | 0.0 | 0.00 | 0.02 | 0.00 | 72 | 1020.7 |
| 20260831072705 | 64 | 61 | 0.0 | 0.0 | 0.00 | 0.02 | 0.00 | 71 | 1020.7 |
| 20260831072204 | 64 | 61 | 0.0 | 0.0 | 0.00 | 0.02 | 0.00 | 70 | 1020.6 |
| 20260831071705 | 64 | 61 | 0.0 | 0.0 | 0.00 | 0.02 | 0.00 | 70 | 1020.6 |
| 20260831071204 | 64 | 61 | 0.0 | 0.0 | 0.00 | 0.02 | 0.00 | 70 | 1020.7 |
| 20260831070704 | 64 | 61 | 0.0 | 0.0 | 0.00 | 0.02 | 0.00 | 70 | 1020.7 |
| 20260831070205 | 64 | 61 | 0.0 | 0.0 | 0.00 | 0.02 | 0.00 | 70 | 1020.7 |
| 20260831065704 | 64 | 61 | 0.0 | 0.0 | 0.00 | 0.02 | 0.00 | 70 | 1020.7 |
| 20260831065204 | 64 | 61 | 0.0 | 1.0 | 0.00 | 0.02 | 0.00 | 70 | 1020.7 |
| 20260831064704 | 64 | 61 | 0.0 | 0.0 | 0.00 | 0.02 | 0.00 | 70 | 1020.6 |
| 20260831064203 | 64 | 61 | 0.0 | 1.0 | 0.00 | 0.02 | 0.00 | 70 | 1020.7 |
| 20260831063704 | 65 | 61 | 0.0 | 0.0 | 0.00 | 0.02 | 0.00 | 70 | 1020.7 |
| 20260831063204 | 65 | 61 | 0.0 | 0.0 | 0.00 | 0.02 | 0.00 | 69 | 1020.8 |
| 20260831062704 | 65 | 61 | 0.0 | 1.0 | 0.00 | 0.02 | 0.00 | 68 | 1020.9 |
| 20260831062204 | 65 | 61 | 0.0 | 0.0 | 0.00 | 0.02 | 0.00 | 68 | 1020.9 |
| 20260831061704 | 65 | 61 | 0.0 | 0.0 | 0.00 | 0.02 | 0.00 | 68 | 1021.0 |
| 20260831060705 | 65 | 61 | 0.0 | 0.0 | 0.00 | 0.02 | 0.00 | 68 | 1021.0 |
| 20260831060204 | 65 | 61 | 0.0 | 0.0 | 0.00 | 0.02 | 0.00 | 67 | 1021.0 |
| 20260831055704 | 65 | 61 | 0.0 | 0.0 | 0.00 | 0.02 | 0.02 | 67 | 1021.0 |
| 20260831055204 | 65 | 61 | 0.0 | 0.0 | 0.00 | 0.02 | 0.02 | 68 | 1021.1 |
| 20260831053704 | 65 | 61 | 0.0 | 0.0 | 0.00 | 0.02 | 0.02 | 67 | 1021.3 |
| 20260831053204 | 65 | 61 | 0.0 | 0.0 | 0.00 | 0.02 | 0.02 | 69 | 1021.3 |
| 20260831052704 | 65 | 61 | 0.0 | 2.0 | 0.00 | 0.02 | 0.02 | 71 | 1021.2 |
| 20260831052204 | 65 | 61 | 0.0 | 0.0 | 0.00 | 0.02 | 0.02 | 74 | 1021.2 |
| 20260831051704 | 65 | 61 | 0.0 | 0.0 | 0.00 | 0.02 | 0.02 | 75 | 1021.3 |
| 20260831051204 | 65 | 61 | 0.0 | 0.0 | 0.00 | 0.02 | 0.02 | 76 | 1021.5 |
| 20260831050204 | 65 | 61 | 0.0 | 3.0 | 0.00 | 0.02 | 0.02 | 79 | 1021.7 |
| 20260831045704 | 64 | 61 | 0.0 | 2.0 | 0.00 | 0.02 | 0.02 | 79 | 1021.8 |
| 20260831045204 | 64 | 61 | 0.0 | 0.0 | 0.00 | 0.02 | 0.02 | 78 | 1021.8 |
| 20260831044704 | 64 | 61 | 0.0 | 0.0 | 0.00 | 0.02 | 0.02 | 78 | 1021.7 |
| 20260831044203 | 64 | 61 | 0.0 | 0.0 | 0.00 | 0.02 | 0.02 | 78 | 1021.7 |
| 20260831043704 | 64 | 61 | 0.0 | 0.0 | 0.00 | 0.02 | 0.02 | 78 | 1021.6 |
| 20260831043204 | 64 | 61 | 0.0 | 0.0 | 0.00 | 0.02 | 0.02 | 78 | 1021.5 |
| 20260831042205 | 65 | 61 | 0.0 | 0.0 | 0.00 | 0.02 | 0.02 | 77 | 1021.2 |
| 20260831041704 | 65 | 61 | 0.0 | 0.0 | 0.00 | 0.02 | 0.02 | 77 | 1021.2 |
| 20260831041204 | 65 | 61 | 0.0 | 0.0 | 0.00 | 0.02 | 0.02 | 77 | 1021.1 |
| 20260831040704 | 65 | 61 | 0.0 | 0.0 | 0.00 | 0.02 | 0.02 | 77 | 1021.1 |
| 20260831040204 | 65 | 61 | 0.0 | 0.0 | 0.00 | 0.02 | 0.02 | 77 | 1021.1 |
| 20260831035704 | 65 | 61 | 0.0 | 0.0 | 0.00 | 0.02 | 0.02 | 77 | 1021.2 |
| 20260831035204 | 65 | 61 | 0.0 | 0.0 | 0.00 | 0.02 | 0.02 | 77 | 1021.1 |
| 20260831034704 | 65 | 61 | 0.0 | 0.0 | 0.00 | 0.02 | 0.02 | 77 | 1021.0 |
| 20260831033704 | 65 | 61 | 0.0 | 0.0 | 0.00 | 0.02 | 0.02 | 76 | 1020.9 |
| 20260831033204 | 65 | 61 | 0.0 | 0.0 | 0.00 | 0.02 | 0.02 | 76 | 1020.9 |
| 20260831032704 | 65 | 61 | 0.0 | 0.0 | 0.00 | 0.02 | 0.02 | 75 | 1021.0 |
| 20260831031705 | 65 | 61 | 0.0 | 0.0 | 0.00 | 0.02 | 0.02 | 75 | 1021.0 |
| 20260831030704 | 66 | 61 | 0.0 | 0.0 | 0.00 | 0.02 | 0.02 | 74 | 1021.0 |
| 20260831030203 | 66 | 61 | 0.0 | 0.0 | 0.00 | 0.02 | 0.02 | 74 | 1021.0 |
| 20260831025704 | 66 | 61 | 0.0 | 0.0 | 0.00 | 0.02 | 0.02 | 73 | 1020.8 |
| 20260831025203 | 66 | 61 | 0.0 | 0.0 | 0.00 | 0.02 | 0.02 | 73 | 1020.8 |
| 20260831024704 | 66 | 61 | 0.0 | 0.0 | 0.00 | 0.02 | 0.02 | 73 | 1020.8 |
| 20260831024204 | 66 | 61 | 0.0 | 0.0 | 0.00 | 0.02 | 0.02 | 72 | 1020.7 |
| 20260831023704 | 66 | 61 | 0.0 | 0.0 | 0.00 | 0.02 | 0.02 | 71 | 1020.6 |
| 20260831023204 | 67 | 61 | 0.0 | 0.0 | 0.00 | 0.02 | 0.02 | 71 | 1020.6 |
| 20260831022704 | 67 | 61 | 0.0 | 0.0 | 0.00 | 0.02 | 0.02 | 70 | 1020.4 |
| 20260831021204 | 68 | 61 | 0.0 | 0.0 | 0.00 | 0.02 | 0.02 | 69 | 1020.5 |
| 20260831020704 | 68 | 61 | 0.0 | 0.0 | 0.00 | 0.02 | 0.02 | 68 | 1020.4 |
| 20260831020204 | 69 | 61 | 0.0 | 0.0 | 0.00 | 0.02 | 0.02 | 67 | 1020.4 |
| 20260831015204 | 69 | 61 | 0.0 | 0.0 | 0.00 | 0.02 | 0.02 | 67 | 1020.4 |
| 20260831014703 | 69 | 61 | 0.0 | 0.0 | 0.00 | 0.02 | 0.02 | 66 | 1020.4 |
| 20260831014204 | 70 | 61 | 0.0 | 0.0 | 0.00 | 0.02 | 0.02 | 65 | 1020.4 |
| 20260831013703 | 70 | 61 | 0.0 | 0.0 | 0.00 | 0.02 | 0.02 | 65 | 1020.2 |
| 20260831013204 | 71 | 61 | 0.0 | 0.0 | 0.00 | 0.02 | 0.02 | 63 | 1020.2 |
| 20260831012204 | 71 | 61 | 0.0 | 0.0 | 0.00 | 0.02 | 0.02 | 63 | 1020.2 |
| 20260831011703 | 72 | 61 | 0.0 | 0.0 | 0.00 | 0.02 | 0.02 | 63 | 1020.1 |
| 20260831011203 | 72 | 61 | 0.0 | 0.0 | 0.00 | 0.02 | 0.02 | 62 | 1020.2 |
| 20260831010705 | 72 | 61 | 0.0 | 1.0 | 0.00 | 0.02 | 0.02 | 61 | 1020.0 |
| 20260831010206 | 73 | 61 | 0.0 | 2.0 | 0.00 | 0.02 | 0.02 | 61 | 1020.2 |
| 20260831005705 | 73 | 61 | 1.0 | 2.0 | 0.00 | 0.02 | 0.02 | 59 | 1020.3 |
| 20260831005205 | 73 | 61 | 0.0 | 0.0 | 0.00 | 0.02 | 0.02 | 59 | 1020.2 |
| 20260831004705 | 74 | 61 | 0.0 | 1.0 | 0.00 | 0.02 | 0.02 | 59 | 1020.3 |
| 20260831004205 | 74 | 61 | 0.0 | 2.0 | 0.00 | 0.02 | 0.02 | 59 | 1020.3 |
| 20260831003705 | 74 | 61 | 1.0 | 3.0 | 0.00 | 0.02 | 0.02 | 58 | 1020.2 |
| 20260831003205 | 74 | 183 | 0.0 | 1.0 | 0.00 | 0.02 | 0.02 | 58 | 1020.1 |
| 20260831001705 | 75 | 186 | 1.0 | 5.0 | 0.00 | 0.02 | 0.02 | 57 | 1020.0 |
| 20260831001205 | 75 | 174 | 2.0 | 9.0 | 0.00 | 0.02 | 0.02 | 55 | 1020.2 |
| 20260831000705 | 75 | 207 | 1.0 | 5.0 | 0.00 | 0.02 | 0.02 | 54 | 1020.3 |
| 20260831000205 | 75 | 197 | 1.0 | 3.0 | 0.00 | 0.02 | 0.02 | 53 | 1020.4 |
| 20260830235706 | 75 | 197 | 2.0 | 6.0 | 0.00 | 0.02 | 0.02 | 53 | 1020.4 |
| 20260830234205 | 75 | 142 | 2.0 | 5.0 | 0.00 | 0.02 | 0.02 | 53 | 1020.2 |
| 20260830233705 | 74 | 176 | 1.0 | 5.0 | 0.00 | 0.02 | 0.02 | 53 | 1020.2 |
| 20260830233205 | 74 | 196 | 1.0 | 3.0 | 0.00 | 0.02 | 0.02 | 52 | 1020.2 |
| 20260830232705 | 74 | 196 | 1.0 | 3.0 | 0.00 | 0.02 | 0.02 | 52 | 1020.0 |
| 20260830232205 | 74 | 155 | 1.0 | 6.0 | 0.00 | 0.02 | 0.02 | 52 | 1020.0 |
| 20260830231706 | 73 | 147 | 0.0 | 2.0 | 0.00 | 0.02 | 0.02 | 57 | 1019.9 |